Eagle River, WI

11:53 AM CST on February 21, 2018 (GMT -0600)
Eagle River Union

Weather History for KEGV - September, 2012

Change the Weather History Date:

Thursday, September 13, 2012

  Actual Average Record
Temperature  
Mean Temperature 50 °F -  
Max Temperature 64 °F 70 °F 81 °F (1990)
Min Temperature 37 °F 51 °F 30 °F (2014)
Degree Days  
Heating Degree Days 14    
Moisture  
Dew Point 38 °F    
Average Humidity 65    
Maximum Humidity 100    
Minimum Humidity 27    
Precipitation  
Precipitation 0.00 in - - ()
Sea Level Pressure  
Sea Level Pressure 30.25 in    
Wind  
Wind Speed 6 mph (West)    
Max Wind Speed 16 mph    
Max Gust Speed 25 mph    
Visibility 10 miles    
Events Rain    
Averages and records for this station are not official NWS values.
T = Trace of Precipitation, MM = Missing Value Source: NWS Daily Summary

Daily Weather History Graph

Daily Weather History Graph

Search for Another Location

Airport or City:

Trip Planner

Search our weather history database for the weather conditions in past years. The results will help you decide how hot, cold, wet, or windy it might be!

Date:

Astronomy

Sep. 13, 2012 Rise Set
Actual Time 6:33 AM CDT 7:11 PM CDT
Civil Twilight 6:03 AM CDT 7:41 PM CDT
Nautical Twilight 5:27 AM CDT 8:16 PM CDT
Astronomical Twilight 4:50 AM CDT 8:53 PM CDT
Moon 3:46 AM CDT (9/13) 5:38 PM CDT (9/13)
Length of Visible Light 13h 37m
Length of Day
12h 37m
Waning Crescent, 7% of the Moon is Illuminated
Sep 13
Waning Crescent
Sep 15
New
Sep 22
First Quarter
Sep 29
Full
Oct 8
Last Quarter

Hourly Weather History & Observations

Time (CDT) Temp. Dew Point Humidity Pressure Visibility Wind Dir Wind Speed Gust Speed Precip Events Conditions
12:15 AM 48.2 °F 42.8 °F 82% 30.20 in 10.0 mi WSW 5.8 mph - N/A   Overcast
12:35 AM 50.0 °F 42.8 °F 76% 30.20 in 10.0 mi WSW 4.6 mph - N/A   Overcast
12:55 AM 50.0 °F 42.8 °F 76% 30.20 in 10.0 mi WSW 5.8 mph - N/A   Scattered Clouds
1:15 AM 48.2 °F 42.8 °F 82% 30.21 in 10.0 mi SW 4.6 mph - N/A   Clear
1:35 AM 48.2 °F 42.8 °F 82% 30.22 in 10.0 mi SW 5.8 mph - N/A   Scattered Clouds
1:55 AM 50.0 °F 42.8 °F 76% 30.22 in 10.0 mi SW 6.9 mph - N/A   Mostly Cloudy
2:15 AM 50.0 °F 42.8 °F 76% 30.22 in 10.0 mi SW 3.5 mph - N/A   Overcast
2:35 AM 50.0 °F 42.8 °F 76% 30.22 in 10.0 mi SW 9.2 mph - N/A   Overcast
3:35 AM 48.2 °F 42.8 °F 82% 30.23 in 10.0 mi WSW 5.8 mph - N/A   Overcast
3:55 AM 48.2 °F 42.8 °F 82% 30.23 in 10.0 mi WSW 5.8 mph - N/A   Overcast
4:15 AM 50.0 °F 42.8 °F 76% 30.22 in 10.0 mi WSW 5.8 mph - N/A   Overcast
4:55 AM 50.0 °F 44.6 °F 82% 30.22 in 10.0 mi West 6.9 mph - N/A Rain Light Rain
5:15 AM 50.0 °F 44.6 °F 82% 30.22 in 10.0 mi West 3.5 mph - N/A Rain Light Rain
5:55 AM 48.2 °F 46.4 °F 93% 30.22 in 10.0 mi Calm Calm - N/A   Overcast
6:15 AM 48.2 °F 46.4 °F 93% 30.22 in 10.0 mi WSW 3.5 mph - N/A   Overcast
6:35 AM 48.2 °F 46.4 °F 93% 30.23 in 10.0 mi WSW 4.6 mph - N/A   Overcast
6:55 AM 50.0 °F 46.4 °F 87% 30.23 in 10.0 mi WSW 3.5 mph - N/A   Overcast
7:35 AM 50.0 °F 46.4 °F 87% 30.24 in 10.0 mi WSW 5.8 mph - N/A   Overcast
7:55 AM 50.0 °F 44.6 °F 82% 30.24 in 10.0 mi WSW 5.8 mph - N/A   Mostly Cloudy
8:15 AM 50.0 °F 44.6 °F 82% 30.24 in 10.0 mi WSW 5.8 mph - N/A   Clear
8:35 AM 51.8 °F 44.6 °F 76% 30.24 in 10.0 mi WSW 5.8 mph - N/A   Clear
8:55 AM 51.8 °F 44.6 °F 76% 30.25 in 10.0 mi West 6.9 mph - N/A   Clear
9:15 AM 51.8 °F 44.6 °F 76% 30.25 in 10.0 mi WSW 4.6 mph - N/A   Clear
9:35 AM 53.6 °F 44.6 °F 72% 30.26 in 10.0 mi WSW 6.9 mph - N/A   Clear
10:15 AM 53.6 °F 42.8 °F 67% 30.27 in 10.0 mi West 5.8 mph - N/A   Clear
10:35 AM 53.6 °F 41.0 °F 62% 30.27 in 10.0 mi West 8.1 mph - N/A   Clear
10:55 AM 55.4 °F 41.0 °F 58% 30.28 in 10.0 mi West 9.2 mph - N/A   Clear
11:15 AM 55.4 °F 37.4 °F 51% 30.28 in 10.0 mi WNW 5.8 mph - N/A   Clear
11:35 AM 55.4 °F 37.4 °F 51% 30.28 in 10.0 mi West 12.7 mph 17.3 mph N/A   Clear
11:55 AM 59.0 °F 37.4 °F 45% 30.27 in 10.0 mi West 10.4 mph 20.7 mph N/A   Clear
12:15 PM 59.0 °F 33.8 °F 39% 30.27 in 10.0 mi WNW 10.4 mph 18.4 mph N/A   Clear
12:35 PM 59.0 °F 33.8 °F 39% 30.26 in 10.0 mi West 10.4 mph 17.3 mph N/A   Clear
12:55 PM 60.8 °F 33.8 °F 36% 30.26 in 10.0 mi WNW 11.5 mph 21.9 mph N/A   Clear
1:15 PM 59.0 °F 32.0 °F 36% 30.26 in 10.0 mi WNW 15.0 mph 20.7 mph N/A   Clear
1:55 PM 62.6 °F 28.4 °F 27% 30.25 in 10.0 mi WNW 13.8 mph 21.9 mph N/A   Clear
2:15 PM 60.8 °F 26.6 °F 27% 30.25 in 10.0 mi NW 12.7 mph 20.7 mph N/A   Clear
2:55 PM 60.8 °F 28.4 °F 29% 30.25 in 10.0 mi WNW 10.4 mph 25.3 mph N/A   Clear
3:15 PM 62.6 °F 30.2 °F 30% 30.25 in 10.0 mi WNW 10.4 mph 23.0 mph N/A   Clear
3:35 PM 64.4 °F 30.2 °F 28% 30.25 in 10.0 mi NW 10.4 mph 20.7 mph N/A   Clear
3:55 PM 62.6 °F 28.4 °F 27% 30.25 in 10.0 mi North 11.5 mph 17.3 mph N/A   Clear
4:15 PM 62.6 °F 28.4 °F 27% 30.25 in 10.0 mi WNW 12.7 mph 21.9 mph N/A   Clear
4:55 PM 62.6 °F 30.2 °F 30% 30.26 in 10.0 mi NW 10.4 mph 16.1 mph N/A   Clear
5:15 PM 62.6 °F 30.2 °F 30% 30.26 in 10.0 mi NNW 16.1 mph 19.6 mph N/A   Scattered Clouds
5:35 PM 62.6 °F 30.2 °F 30% 30.26 in 10.0 mi NW 12.7 mph 20.7 mph N/A   Scattered Clouds
5:55 PM 60.8 °F 30.2 °F 31% 30.26 in 10.0 mi NW 8.1 mph - N/A   Clear
6:15 PM 60.8 °F 30.2 °F 31% 30.26 in 10.0 mi NNW 6.9 mph - N/A   Clear
6:55 PM 55.4 °F 33.8 °F 44% 30.27 in 10.0 mi Calm Calm - N/A   Clear
7:35 PM 48.2 °F 37.4 °F 66% 30.28 in 10.0 mi Calm Calm - N/A   Clear
8:15 PM 44.6 °F 37.4 °F 76% 30.28 in 10.0 mi Calm Calm - N/A   Clear
8:35 PM 42.8 °F 37.4 °F 81% 30.29 in 10.0 mi Calm Calm - N/A   Clear
9:15 PM 39.2 °F 35.6 °F 87% 30.29 in 10.0 mi Calm Calm - N/A   Clear
9:35 PM 41.0 °F 39.2 °F 93% 30.29 in 10.0 mi Calm Calm - N/A   Clear
9:55 PM 39.2 °F 37.4 °F 93% 30.29 in 10.0 mi Calm Calm - N/A   Clear
10:15 PM 39.2 °F 37.4 °F 93% 30.30 in 10.0 mi Calm Calm - N/A   Clear
10:55 PM 37.4 °F 37.4 °F 100% 30.29 in 10.0 mi Calm Calm - N/A   Clear
11:15 PM 37.4 °F 35.6 °F 93% 30.29 in 10.0 mi Calm Calm - N/A   Clear
11:35 PM 37.4 °F 37.4 °F 100% 30.29 in 10.0 mi Calm Calm - N/A   Clear